Mead, OK

11:50 PM CDT on August 23, 2016 (GMT -0500)
Eaker

Weather History for KDUA - January, 2014

Change the Weather History Date:

Wednesday, January 1, 2014

  Actual Average (KADM) Record (KADM)
Temperature  
Mean Temperature 49 °F -  
Max Temperature 66 °F 51 °F 78 °F (2006)
Min Temperature 32 °F 33 °F 19 °F (2001)
Degree Days  
Heating Degree Days 16    
Moisture  
Dew Point 34 °F    
Average Humidity 70    
Maximum Humidity 100    
Minimum Humidity 42    
Precipitation  
Precipitation 0.00 in - - ()
Sea Level Pressure  
Sea Level Pressure 30.03 in    
Wind  
Wind Speed 8 mph (South)    
Max Wind Speed 25 mph    
Max Gust Speed 32 mph    
Visibility 10 miles    
Events      
Averages and records for this station are not official NWS values.
T = Trace of Precipitation, MM = Missing Value Source: NWS Daily Summary

Daily Weather History Graph

Daily Weather History Graph

Search for Another Location

Airport or City:

Trip Planner

Search our weather history database for the weather conditions in past years. The results will help you decide how hot, cold, wet, or windy it might be!

Date:

Astronomy

Jan. 01, 2014 Rise Set
Actual Time 7:30 AM CST 5:27 PM CST
Civil Twilight 7:03 AM CST 5:55 PM CST
Nautical Twilight 6:32 AM CST 6:26 PM CST
Astronomical Twilight 6:01 AM CST 6:56 PM CST
Moon 7:25 AM CST (1/1) 6:10 PM CST (1/1)
Length of Visible Light 10h 52m
Length of Day
9h 56m
New Moon, 0% of the Moon is Illuminated
Jan 1
New Moon
Jan 7
First Quarter
Jan 15
Full
Jan 23
Last Quarter
Jan 30
New

Hourly Weather History & Observations

Time (CST) Temp. Windchill Dew Point Humidity Pressure Visibility Wind Dir Wind Speed Gust Speed Precip Events Conditions
12:15 AM 32.0 °F - 26.6 °F 80% 30.20 in 10.0 mi Calm Calm - N/A   Clear
12:35 AM 32.0 °F - 26.6 °F 80% 30.19 in 10.0 mi Calm Calm - N/A   Clear
12:55 AM 32.0 °F - 26.6 °F 80% 30.19 in 10.0 mi Calm Calm - N/A   Clear
1:15 AM 32.0 °F - 24.8 °F 75% 30.18 in 10.0 mi Calm Calm - N/A   Clear
1:35 AM 32.0 °F - 28.4 °F 87% 30.17 in 10.0 mi Calm Calm - N/A   Clear
1:55 AM 32.0 °F - 30.2 °F 93% 30.17 in 10.0 mi Calm Calm - N/A   Clear
2:15 AM 33.8 °F - 30.2 °F 87% 30.16 in 10.0 mi Calm Calm - N/A   Clear
2:35 AM 33.8 °F - 30.2 °F 87% 30.15 in 10.0 mi Calm Calm - N/A   Clear
2:55 AM 32.0 °F - 30.2 °F 93% 30.15 in 10.0 mi Calm Calm - N/A   Clear
3:15 AM 32.0 °F 26.4 °F 28.4 °F 87% 30.14 in 10.0 mi SSE 5.8 mph - N/A   Clear
3:35 AM 32.0 °F 26.4 °F 28.4 °F 87% 30.13 in 10.0 mi SSE 5.8 mph - N/A   Clear
3:55 AM 32.0 °F 25.6 °F 26.6 °F 80% 30.13 in 10.0 mi SE 6.9 mph - N/A   Clear
4:15 AM 32.0 °F 25.6 °F 28.4 °F 87% 30.12 in 10.0 mi SE 6.9 mph - N/A   Clear
4:35 AM 32.0 °F 24.2 °F 28.4 °F 87% 30.11 in 10.0 mi SSE 9.2 mph - N/A   Clear
4:55 AM 32.0 °F 24.8 °F 30.2 °F 93% 30.10 in 10.0 mi SSE 8.1 mph - N/A   Clear
5:15 AM 32.0 °F 24.2 °F 30.2 °F 93% 30.09 in 10.0 mi SE 9.2 mph - N/A   Clear
5:35 AM 32.0 °F 23.6 °F 30.2 °F 93% 30.09 in 10.0 mi SSE 10.4 mph - N/A   Clear
5:55 AM 32.0 °F 23.6 °F 32.0 °F 100% 30.07 in 10.0 mi SSE 10.4 mph - N/A   Clear
6:15 AM 32.0 °F 23.6 °F 32.0 °F 100% 30.07 in 10.0 mi SSE 10.4 mph - N/A   Clear
6:35 AM 32.0 °F 24.2 °F 32.0 °F 100% 30.07 in 10.0 mi SSE 9.2 mph - N/A   Clear
6:55 AM 32.0 °F 23.6 °F 32.0 °F 100% 30.06 in 10.0 mi SSE 10.4 mph - N/A   Clear
7:15 AM 32.0 °F 24.8 °F 32.0 °F 100% 30.06 in 10.0 mi SSE 8.1 mph - N/A   Clear
7:35 AM 32.0 °F 24.8 °F 32.0 °F 100% 30.06 in 10.0 mi SSE 8.1 mph - N/A   Clear
7:55 AM 32.0 °F 24.8 °F 32.0 °F 100% 30.05 in 10.0 mi SSE 8.1 mph - N/A   Clear
8:15 AM 33.8 °F 27.7 °F 32.0 °F 93% 30.05 in 10.0 mi SSE 6.9 mph - N/A   Clear
8:35 AM 35.6 °F 28.0 °F 33.8 °F 93% 30.04 in 10.0 mi SSE 10.4 mph - N/A   Clear
8:55 AM 37.4 °F 30.8 °F 35.6 °F 93% 30.03 in 10.0 mi South 9.2 mph - N/A   Clear
9:15 AM 41.0 °F 33.9 °F 35.6 °F 81% 30.03 in 10.0 mi South 12.7 mph - N/A   Clear
9:35 AM 42.8 °F 36.6 °F 35.6 °F 76% 30.03 in 10.0 mi South 11.5 mph - N/A   Clear
9:55 AM 44.6 °F 39.2 °F 35.6 °F 71% 30.03 in 10.0 mi South 10.4 mph - N/A   Clear
10:15 AM 46.4 °F 40.7 °F 35.6 °F 66% 30.02 in 10.0 mi SSW 12.7 mph - N/A   Clear
10:35 AM 50.0 °F - 35.6 °F 58% 30.02 in 10.0 mi South 13.8 mph - N/A   Clear
10:55 AM 51.8 °F - 37.4 °F 58% 30.00 in 10.0 mi SSW 16.1 mph 19.6 mph N/A   Clear
11:15 AM 53.6 °F - 37.4 °F 54% 30.00 in 10.0 mi South 16.1 mph 21.9 mph N/A   Clear
11:35 AM 53.6 °F - 37.4 °F 54% 29.98 in 10.0 mi South 17.3 mph 23.0 mph N/A   Clear
11:55 AM 55.4 °F - 37.4 °F 51% 29.97 in 10.0 mi South 17.3 mph - N/A   Clear
12:15 PM 57.2 °F - 37.4 °F 48% 29.95 in 10.0 mi South 15.0 mph 20.7 mph N/A   Clear
12:35 PM 59.0 °F - 37.4 °F 45% 29.92 in 10.0 mi South 18.4 mph 25.3 mph N/A   Clear
12:55 PM 59.0 °F - 37.4 °F 45% 29.91 in 10.0 mi South 15.0 mph - N/A   Clear
1:15 PM 60.8 °F - 39.2 °F 45% 29.89 in 10.0 mi South 17.3 mph 21.9 mph N/A   Clear
1:35 PM 62.6 °F - 41.0 °F 45% 29.88 in 10.0 mi South 18.4 mph - N/A   Clear
1:55 PM 62.6 °F - 41.0 °F 45% 29.88 in 10.0 mi SSW 18.4 mph 24.2 mph N/A   Clear
2:15 PM 62.6 °F - 41.0 °F 45% 29.88 in 10.0 mi SSW 16.1 mph 19.6 mph N/A   Clear
2:35 PM 64.4 °F - 41.0 °F 42% 29.87 in 10.0 mi SSW 17.3 mph 20.7 mph N/A   Clear
2:55 PM 64.4 °F - 41.0 °F 42% 29.86 in 10.0 mi SSW 17.3 mph 20.7 mph N/A   Clear
3:15 PM 66.2 °F - 42.8 °F 43% 29.87 in 10.0 mi SSW 13.8 mph 21.9 mph N/A   Clear
3:35 PM 64.4 °F - 42.8 °F 45% 29.87 in 10.0 mi SW 15.0 mph 21.9 mph N/A   Clear
3:55 PM 64.4 °F - 42.8 °F 45% 29.88 in 10.0 mi SW 12.7 mph 20.7 mph N/A   Clear
4:15 PM 64.4 °F - 42.8 °F 45% 29.89 in 10.0 mi South 10.4 mph - N/A   Clear
4:35 PM 64.4 °F - 42.8 °F 45% 29.89 in 10.0 mi SSW 8.1 mph 11.5 mph N/A   Clear
4:55 PM 62.6 °F - 42.8 °F 48% 29.89 in 10.0 mi SSE 8.1 mph - N/A   Clear
5:15 PM 60.8 °F - 42.8 °F 52% 29.90 in 10.0 mi SE 4.6 mph - N/A   Clear
5:35 PM 57.2 °F - 41.0 °F 55% 29.91 in 10.0 mi ESE 4.6 mph - N/A   Clear
5:55 PM 53.6 °F - 41.0 °F 62% 29.91 in 10.0 mi SSE 4.6 mph - N/A   Clear
6:15 PM 51.8 °F - 41.0 °F 67% 29.93 in 10.0 mi NW 8.1 mph - N/A   Clear
6:35 PM 51.8 °F - 42.8 °F 71% 29.94 in 10.0 mi WNW 3.5 mph - N/A   Clear
6:55 PM 55.4 °F - 41.0 °F 58% 29.95 in 10.0 mi NNW 16.1 mph 21.9 mph N/A   Clear
7:15 PM 53.6 °F - 35.6 °F 51% 29.97 in 10.0 mi NNW 13.8 mph - N/A   Clear
7:35 PM 53.6 °F - 35.6 °F 51% 29.99 in 10.0 mi NNW 15.0 mph - N/A   Clear
7:55 PM 51.8 °F - 35.6 °F 54% 30.01 in 10.0 mi NW 19.6 mph 25.3 mph N/A   Clear
8:15 PM 50.0 °F - 35.6 °F 58% 30.03 in 10.0 mi NNW 24.2 mph 28.8 mph N/A   Clear
8:35 PM 44.6 °F 35.5 °F 33.8 °F 66% 30.05 in 10.0 mi NNW 25.3 mph 28.8 mph N/A   Clear
8:55 PM 41.0 °F 31.6 °F 32.0 °F 70% 30.08 in 10.0 mi NNW 20.7 mph 32.2 mph N/A   Clear
9:15 PM 39.2 °F 28.5 °F 30.2 °F 70% 30.10 in 10.0 mi NNW 24.2 mph 32.2 mph N/A   Clear
9:35 PM 37.4 °F 27.2 °F 30.2 °F 75% 30.12 in 10.0 mi NNW 19.6 mph 31.1 mph N/A   Clear
9:55 PM 35.6 °F 24.0 °F 28.4 °F 75% 30.13 in 10.0 mi NNW 23.0 mph 29.9 mph N/A   Clear
10:15 PM 33.8 °F 22.2 °F 26.6 °F 75% 30.15 in 10.0 mi NNW 20.7 mph 29.9 mph N/A   Clear
10:35 PM 33.8 °F 22.5 °F 26.6 °F 75% 30.16 in 10.0 mi NNW 19.6 mph 28.8 mph N/A   Clear
10:55 PM 32.0 °F 22.1 °F 26.6 °F 80% 30.17 in 10.0 mi NNW 13.8 mph 23.0 mph N/A   Clear
11:15 PM 32.0 °F 21.6 °F 24.8 °F 75% 30.18 in 10.0 mi NNW 15.0 mph 21.9 mph N/A   Clear
11:35 PM 32.0 °F 21.2 °F 23.0 °F 69% 30.19 in 10.0 mi NNW 16.1 mph - N/A   Clear
11:55 PM 32.0 °F 20.8 °F 23.0 °F 69% 30.20 in 10.0 mi NNW 17.3 mph 23.0 mph N/A   Clear